ANIK F2

Last updated on Sun Jun 21 2026 00:03:03 GMT+0000 (Coordinated Universal Time)

1 28378U 04027A 26171.36017014 -.00000055 00000+0 00000+0 0 9999 2 28378 3.2965 79.4060 0004092 10.0614 197.6315 1.00271596 41297
UTC large
Height (km)
Speed (km/s)
/
Latitude / Longitude
Inclination (degrees)
Orbital Period (minutes)
Azimuth
Elevation
Range (km)
Doppler Factor

Next 0 passes for location: London (51.5072 / 0.1276)

No passes found over London.
ANIK F2